Вернуться в каталог

STARLINK-11102

АктивенСвязьVLEO
NORAD 60065·PAYLOAD·🇺🇸 United States

Запущен Jun 19, 2024 с Vandenberg Space Force Base

Loading…

Ближайшие Пролёты (ближайшие 24 часа)

TLE

СвежийSource: CelesTrak SupGP

Эпоха: Sep 14, 2026, 14:17 UTC

1 60065C 24113G   26257.59562500  .00036002  00000+0  29660-3 0  2575
2 60065  53.1568 339.7651 0001263  64.8481 304.1175 15.69687914    12

Отслеживайте STARLINK-11102 в реальном времени с AllMySat

Download on the App Store